User: anonymous   Login
Location: Pian di Sc�
(43.6333°N, 11.5500°E)
Time: 11:02:41
(UTC+00:00)
Language:

Cosmos 44 Rocket - Orbit

View from above orbital plane
View from above orbital plane
View from above satellite
View from above satellite

Ground track
Ground track

The orbit data is extracted from the following two-line orbital elements,

1   877U 64053B   20304.91851215 -.00000058 +00000-0 +13210-4 0  9996
2   877 065.0771 293.1090 0072154 333.5102 026.2315 14.59403493981267
Epoch (UTC): 30 October 2020 22:02:39
Eccentricity: 0.0072154
inclination: 65.0771°
perigee height: 644 km
apogee height: 746 km
right ascension of ascending node: 293.1090°
argument of perigee: 333.5102°
revolutions per day: 14.59403493
mean anomaly at epoch: 26.2315°
orbit number at epoch: 98126

The dashed part of the orbit path shows where the satellite is in the earth's shadow,  

DLR